LVBMP SANT-ZZZZ

Flight info

Callsign LVBMP
Flight time N/A
Altitude 4000
Route DCT TCM
Aircraft C208/L-SDFGRZ/C

Departure

Time 2026-04-26 16:34
Airport Teniente Benjamín Matienzo International Airport (SANT)

Arrival

Time N/A
Airport ZZZZ
Time Latitude Longitude Altitude Speed Heading
2026-04-26 16:26 -26.83679 -65.10791 1491 ft 0 kts 280°
2026-04-26 16:30 -26.83683 -65.10784 1485 ft 2 kts 335°
2026-04-26 16:30 -26.83687 -65.10783 1481 ft 0 kts 12°
2026-04-26 16:30 -26.83681 -65.10775 1488 ft 5 kts 88°
2026-04-26 16:31 -26.83653 -65.10719 1491 ft 15 kts 10°
2026-04-26 16:31 -26.83628 -65.10714 1488 ft 18 kts 10°
2026-04-26 16:32 -26.83555 -65.10699 1491 ft 20 kts 11°
2026-04-26 16:32 -26.83482 -65.10681 1487 ft 15 kts 22°
2026-04-26 16:32 -26.83373 -65.10586 1491 ft 18 kts 39°
2026-04-26 16:32 -26.83247 -65.10469 1486 ft 29 kts 40°
2026-04-26 16:33 -26.83176 -65.10403 1491 ft 0 kts 39°
2026-04-26 16:33 -26.83152 -65.10382 1488 ft 10 kts 38°
2026-04-26 16:33 -26.83115 -65.10305 1491 ft 15 kts 146°
2026-04-26 16:33 -26.83207 -65.10310 1491 ft 24 kts 192°
2026-04-26 16:34 -26.83574 -65.10381 1493 ft 82 kts 191°
2026-04-26 16:34 -26.84220 -65.10516 1681 ft 100 kts 185°
2026-04-26 16:34 -26.84772 -65.10924 2067 ft 98 kts 241°
2026-04-26 16:34 -26.84883 -65.11424 2228 ft 105 kts 265°
2026-04-26 16:35 -26.84865 -65.12691 2445 ft 134 kts 274°
2026-04-26 16:35 -26.84785 -65.13395 2667 ft 139 kts 278°
2026-04-26 16:35 -26.84563 -65.14433 3014 ft 138 kts 279°
2026-04-26 16:35 -26.84386 -65.15502 3291 ft 142 kts 279°
2026-04-26 16:36 -26.84229 -65.16598 3541 ft 146 kts 276°
2026-04-26 16:36 -26.84122 -65.17747 3700 ft 149 kts 270°
2026-04-26 16:36 -26.84041 -65.18905 3891 ft 150 kts 276°
2026-04-26 16:36 -26.83909 -65.20088 4013 ft 154 kts 276°
2026-04-26 16:37 -26.83808 -65.21318 4036 ft 161 kts 271°
2026-04-26 16:37 -26.83756 -65.22565 4049 ft 164 kts 274°
2026-04-26 16:37 -26.83609 -65.23852 4030 ft 167 kts 276°
2026-04-26 16:37 -26.83527 -65.25147 4053 ft 166 kts 272°
2026-04-26 16:38 -26.83585 -65.26407 4120 ft 162 kts 258°
2026-04-26 16:38 -26.83748 -65.27624 4164 ft 156 kts 259°
2026-04-26 16:38 -26.83748 -65.28782 4177 ft 145 kts 291°
2026-04-26 16:38 -26.83023 -65.29512 4078 ft 151 kts 339°
2026-04-26 16:39 -26.82007 -65.29426 3957 ft 148 kts 32°
2026-04-26 16:39 -26.81523 -65.28460 3762 ft 151 kts 91°
2026-04-26 16:39 -26.81955 -65.27463 3721 ft 145 kts 144°
2026-04-26 16:39 -26.82928 -65.27307 3595 ft 148 kts 197°
2026-04-26 16:40 -26.83739 -65.28025 3292 ft 157 kts 240°
2026-04-26 16:40 -26.83552 -65.29113 3146 ft 159 kts 326°
2026-04-26 16:40 -26.82579 -65.29033 2878 ft 145 kts 46°
2026-04-26 16:40 -26.82331 -65.28068 2757 ft 126 kts 96°
2026-04-26 16:41 -26.82144 -65.27275 2784 ft 109 kts 38°
2026-04-26 16:41 -26.81416 -65.27014 2701 ft 111 kts 12°
2026-04-26 16:41 -26.80676 -65.27120 2629 ft 109 kts 330°
2026-04-26 16:41 -26.80184 -65.27764 2489 ft 112 kts 295°
2026-04-26 16:42 -26.79970 -65.28575 2360 ft 105 kts 280°
2026-04-26 16:42 -26.79858 -65.29386 2173 ft 106 kts 276°
2026-04-26 16:42 -26.79731 -65.30200 1911 ft 101 kts 254°
2026-04-26 16:42 -26.79613 -65.30869 1869 ft 80 kts 276°
2026-04-26 16:43 -26.79544 -65.31347 1915 ft 28 kts 279°
2026-04-26 16:43 -26.79534 -65.31422 1923 ft 9 kts 258°
2026-04-26 16:43 -26.79560 -65.31395 1906 ft 7 kts 87°
2026-04-26 16:43 -26.79561 -65.31384 1903 ft 0 kts 101°
2026-04-26 16:45 -26.79544 -65.31370 1917 ft 9 kts 341°
2026-04-26 16:45 -26.79497 -65.31428 1923 ft 7 kts 274°
2026-04-26 16:46 -26.79504 -65.31439 1925 ft 0 kts 195°
2026-04-26 16:46 -26.79516 -65.31440 1925 ft 5 kts 161°
2026-04-26 16:46 -26.79543 -65.31323 1910 ft 36 kts 101°
2026-04-26 16:47 -26.79618 -65.30801 1878 ft 95 kts 99°
2026-04-26 16:47 -26.79762 -65.30004 2063 ft 110 kts 103°
2026-04-26 16:47 -26.79744 -65.29151 2350 ft 119 kts 56°
2026-04-26 16:47 -26.78963 -65.28780 2631 ft 132 kts
2026-04-26 16:48 -26.78044 -65.28771 3040 ft 131 kts 336°
2026-04-26 16:48 -26.77454 -65.29584 3093 ft 150 kts 285°
2026-04-26 16:48 -26.77394 -65.30734 3346 ft 147 kts 242°
2026-04-26 16:48 -26.78222 -65.31350 3199 ft 147 kts 190°
2026-04-26 16:49 -26.79191 -65.31526 3160 ft 139 kts 185°
2026-04-26 16:49 -26.80152 -65.31621 3085 ft 139 kts 176°
2026-04-26 16:49 -26.80984 -65.31178 3114 ft 136 kts 130°
2026-04-26 16:49 -26.81350 -65.30233 3019 ft 127 kts 105°
2026-04-26 16:50 -26.81547 -65.29293 2855 ft 120 kts 103°
2026-04-26 16:50 -26.81703 -65.28450 2763 ft 105 kts 100°
2026-04-26 16:50 -26.81420 -65.27792 2692 ft 101 kts 31°
2026-04-26 16:50 -26.80735 -65.27743 2616 ft 105 kts 347°
2026-04-26 16:51 -26.80143 -65.28187 2524 ft 99 kts 304°
2026-04-26 16:51 -26.79908 -65.28884 2329 ft 94 kts 279°
2026-04-26 16:51 -26.79826 -65.29596 2134 ft 92 kts 271°
2026-04-26 16:51 -26.79720 -65.30254 1892 ft 79 kts 289°
2026-04-26 16:52 -26.79621 -65.30829 1865 ft 64 kts 281°
2026-04-26 16:52 -26.79583 -65.31060 1889 ft 25 kts 278°
2026-04-26 16:52 -26.79567 -65.31164 1899 ft 6 kts 280°
2026-04-26 16:52 -26.79557 -65.31232 1901 ft 11 kts 278°
2026-04-26 16:53 -26.79545 -65.31332 1913 ft 15 kts 275°
2026-04-26 16:53 -26.79542 -65.31397 1919 ft 4 kts 186°
2026-04-26 16:53 -26.79552 -65.31389 1906 ft 0 kts 105°